[[{"header":{"parameterUnit":"m.s-1","parameterCategory":1,"la1":30.2991,"la2":30.254,"lo1":-89.0895,"lo2":-89.0444,"dy":0.0017,"dx":0.0017,"nx":28,"ny":28,"refTime":"2024-06-12T09:00:00:Z","depth":0,"parameterNumber":2,"parameterNumberName":"U-component_of_WINDS"},"data":[0,0,0,0,0,0,0,0,0,0,0,0,0,0,0,0,0,0,0,0,0,0,0,0,0,0,0,0,0,0,0,0,0,0,0,0,0,0,0,0,0,0,0,0,0,0,0,0,0,0,0,0,0,0,0,0,0,0,2.7935,2.7937,0,2.8096,2.8098,2.8099,2.8098,2.8096,2.8094,2.8092,2.8258,2.8264,2.8271,0,0,0,0,0,0,0,0,0,0,0,0,0,2.7627,2.7633,2.7935,2.7937,2.7939,2.8095,2.8098,2.81,2.8098,2.8096,2.8093,2.8091,2.8256,2.8264,2.8271,0,0,0,0,0,0,0,0,0,0,0,0,0,2.7772,2.7635,2.7935,2.7957,2.7961,2.8095,2.8098,2.81,2.8099,2.8096,2.8093,2.809,2.8253,2.8263,2.8272,2.8395,0,0,2.8302,2.8306,0,0,0,0,0,0,0,0,2.7764,2.7783,2.7952,2.7956,2.796,2.8074,2.805,2.8199,2.81,2.8047,2.8092,2.8088,2.8199,2.8213,2.825,2.8403,2.841,2.8303,2.8308,2.8312,2.8315,0,0,0,0,0,0,0,2.7754,2.7776,2.7999,2.7954,2.7959,2.7959,2.7976,2.8078,2.8139,2.8051,2.8051,2.807,2.8201,2.8241,2.8254,2.8413,2.8302,2.8311,2.8317,2.832,2.8672,2.8676,0,0,0,0,0,0,2.7739,2.7768,2.7993,2.8003,2.7852,2.7967,2.7986,2.804,2.8138,2.815,2.8073,2.8069,2.8226,2.8243,2.826,2.8409,2.8312,2.8321,2.8327,2.8669,2.8673,2.8677,0,0,0,0,0,0,2.7732,2.7759,2.7987,2.7886,2.7915,2.7976,2.8037,2.8045,2.8085,2.8154,2.8165,2.8102,2.8224,2.8247,2.8361,2.8415,2.8326,2.8334,2.8665,2.867,2.8675,2.8708,0,0,0,0,0,0,2.7723,2.7757,2.7804,2.7887,2.792,2.8085,2.804,2.8051,2.8102,2.8099,2.8185,2.8196,2.8224,2.8347,2.8371,2.8426,2.8342,2.866,2.8667,2.8674,2.8702,2.8714,2.8724,0,0,0,0,0,2.7712,2.7808,2.7806,2.7834,2.7981,2.8088,2.8107,2.8136,2.8106,2.8154,2.8198,2.8194,2.8405,2.8359,2.8385,2.8445,2.8657,2.8665,2.8673,2.8698,2.8712,2.8723,0,0,0,0,0,0,2.773,2.7819,2.7818,2.7943,2.8008,2.8088,2.8149,2.8151,2.8226,2.822,2.8254,2.8273,2.8387,2.8428,2.8374,2.8568,2.8527,2.8541,2.8537,2.8551,2.8561,2.8548,2.835,0,0,0,0,0,2.7749,2.7828,2.7902,2.8005,2.8037,2.8088,2.8136,2.8152,2.8221,2.8249,2.8301,2.8368,2.845,2.8503,2.8582,2.8709,2.8727,2.8763,2.8773,2.8782,2.8793,2.8861,2.8877,2.8704,2.8704,2.8703,0,0,2.7788,2.7846,2.7894,2.801,2.8062,2.8143,2.8111,2.8199,2.8259,2.8262,2.8373,2.8414,2.8491,2.8612,2.8667,2.8649,2.8845,2.8792,2.8798,2.8805,2.8871,2.8887,2.8902,2.8709,2.8708,2.8707,0,0,2.7899,2.7952,2.8043,2.8095,2.8174,2.8207,2.8229,2.8308,2.8335,2.8447,2.845,2.8523,2.8663,2.8717,2.8763,2.8895,2.8893,2.892,2.8974,2.9041,2.9054,2.9066,2.9111,2.9127,2.8931,2.8931,2.8931,0,2.7938,2.806,2.8089,2.8177,2.8227,2.8233,2.8324,2.8374,2.8475,2.851,2.8488,2.8662,2.8715,2.8847,2.8879,2.8917,2.8942,2.8909,2.905,2.9062,2.9074,2.9117,2.9134,2.8933,2.8933,2.8933,2.8933,0,2.8102,2.8187,2.8251,2.8347,2.8405,2.8494,2.8536,2.8591,2.8603,2.8638,2.875,2.8814,2.8904,2.8938,2.8951,2.9072,2.9058,2.9043,2.9002,2.9093,2.9134,2.9151,2.8937,2.8936,2.8935,2.8935,0,0,2.823,2.8339,2.8362,2.8405,2.8492,2.8558,2.8648,2.8736,2.8781,2.8851,2.8926,2.9044,2.903,2.9082,2.9101,2.916,2.9257,2.9137,2.914,2.9155,2.9392,2.9401,2.942,2.9257,2.926,2.9263,2.9385,0,2.8349,2.8506,2.8535,2.8672,2.875,2.8756,2.8834,2.8896,2.8931,2.9002,2.9042,2.9123,2.91,2.9131,2.9189,2.9233,2.9305,2.9225,2.9326,2.9329,2.9304,2.9442,2.9452,2.9564,2.9401,2.9404,2.9406,0,2.8509,2.8581,2.8726,2.8801,2.8835,2.8904,2.8986,2.9055,2.9125,2.9146,2.9203,2.9216,2.9308,2.9265,2.9392,2.9337,2.938,2.9408,2.9413,2.9422,2.9372,2.9453,2.9601,2.9617,2.9432,2.943,2.9428,0,2.8584,2.8718,2.8821,2.8858,2.8949,2.8997,2.9037,2.9104,2.9155,2.9227,2.926,2.9342,2.9387,2.9451,2.9484,2.945,2.9609,2.9569,2.9628,2.9627,2.966,2.9657,2.9815,2.9691,2.9691,2.9691,2.969,0,2.8714,2.8801,2.8856,2.8919,2.9018,2.905,2.9146,2.9186,2.9245,2.9316,2.9327,2.9394,2.9435,2.9508,2.9535,2.9635,2.9656,2.9676,2.9681,2.9674,2.9671,2.9701,2.9693,2.9695,2.9694,2.9693,2.9693,0,2.8814,2.8854,2.8966,2.9043,2.9064,2.9133,2.9198,2.926,2.9295,2.9384,2.9407,2.9462,2.9548,2.9588,2.9695,2.9713,2.9826,2.9828,2.9802,2.9804,2.986,2.9854,3.0042,3.0067,2.9928,2.993,2.9931,0,2.8892,2.896,2.9043,2.909,2.9131,2.9209,2.926,2.9294,2.9347,2.9431,2.9482,2.9568,2.9638,2.9775,2.9825,2.9906,2.9909,2.9969,2.9921,2.991,2.9907,2.9902,2.9908,2.9977,2.9978,2.9979,2.998,0,2.9027,2.9043,2.9116,2.9196,2.9256,2.9321,2.9385,2.9423,2.9468,2.9526,2.9613,2.9668,2.9776,2.9861,2.9945,2.9987,2.9991,2.9995,3.0013,3.0004,2.9985,2.9994,2.9823,2.999,2.9989,2.9989,2.9988,2.9988,2.9118,2.9177,2.9244,2.9324,2.9376,2.9434,2.9495,2.9537,2.961,2.97,2.9716,2.9808,2.9876,2.9989,3.0034,3.0106,3.0092,3.0118,3.0125,3.013,3.0132,2.9975,3.0122,3.0122,3.0122,3.0121,3.0121,0,2.9251,2.9294,2.9368,2.9455,2.9518,2.9516,2.9586,2.9639,2.972,2.9782,2.9851,2.995,3.0032,3.0088,3.0171,3.0218,3.0222,3.0238,3.0234,3.0243,3.0141,3.0116,3.0234,3.0234,3.0234,3.0234,3.0234,3.0234,2.9328,2.9427,2.9451,2.9576,2.9619,2.9708,2.9748,2.9802,2.9852,2.9961,3.0029,3.0065,3.0124,3.0211,3.0286,3.0301,3.033,3.0347,3.036,3.0263,3.0251,3.024,3.0216,3.0353,3.0353,3.0456,3.0457,3.0458]},{"header":{"parameterUnit":"m.s-1","parameterCategory":1,"la1":30.2991,"la2":30.254,"lo1":-89.0895,"lo2":-89.0444,"dy":0.0017,"dx":0.0017,"nx":28,"ny":28,"refTime":"2024-06-12T09:00:00:Z","depth":0,"parameterNumber":3,"parameterNumberName":"V-component_of_WINDS"},"data":[0,0,0,0,0,0,0,0,0,0,0,0,0,0,0,0,0,0,0,0,0,0,0,0,0,0,0,0,0,0,0,0,0,0,0,0,0,0,0,0,0,0,0,0,0,0,0,0,0,0,0,0,0,0,0,0,0,0,0.7896,0.7895,0,0.7777,0.7776,0.7774,0.7684,0.7683,0.7682,0.7681,0.7555,0.7553,0.755,0,0,0,0,0,0,0,0,0,0,0,0,0,0.8039,0.8036,0.7896,0.7894,0.7893,0.7777,0.7776,0.7774,0.7684,0.7683,0.7682,0.7681,0.7556,0.7553,0.755,0,0,0,0,0,0,0,0,0,0,0,0,0,0.7954,0.8036,0.7896,0.7834,0.7827,0.7778,0.7776,0.7774,0.7684,0.7683,0.7682,0.7681,0.7557,0.7553,0.7549,0.755,0,0,0.7538,0.7536,0,0,0,0,0,0,0,0,0.7959,0.7949,0.7845,0.7838,0.7831,0.7744,0.778,0.7699,0.7684,0.7738,0.7681,0.768,0.7619,0.761,0.759,0.7545,0.7539,0.7537,0.7535,0.7533,0.7532,0,0,0,0,0,0,0,0.7965,0.7953,0.7849,0.7843,0.7835,0.781,0.7797,0.7764,0.7687,0.7734,0.7727,0.7714,0.7615,0.7594,0.7586,0.7537,0.7537,0.7534,0.7532,0.753,0.7483,0.7484,0,0,0,0,0,0,0.7981,0.7959,0.7852,0.7845,0.7893,0.7809,0.7794,0.7773,0.7687,0.7673,0.7715,0.771,0.7601,0.7591,0.7582,0.7575,0.7533,0.753,0.7527,0.7482,0.7483,0.7484,0,0,0,0,0,0,0.7984,0.7972,0.7857,0.79,0.7884,0.7808,0.7785,0.7771,0.7751,0.7673,0.7659,0.7709,0.76,0.7587,0.7558,0.7569,0.7528,0.7524,0.748,0.7482,0.7484,0.7563,0,0,0,0,0,0,0.7989,0.7974,0.7975,0.7901,0.7882,0.7838,0.7786,0.777,0.7745,0.7737,0.7663,0.765,0.7598,0.7565,0.7555,0.7563,0.7521,0.7479,0.7481,0.7483,0.7559,0.7567,0.7574,0,0,0,0,0,0.7994,0.8002,0.7976,0.7964,0.7882,0.7839,0.7828,0.7769,0.7746,0.7745,0.7695,0.7652,0.757,0.7563,0.755,0.7558,0.7478,0.7481,0.7483,0.7556,0.7566,0.7574,0,0,0,0,0,0,0.8079,0.7991,0.7961,0.7946,0.7901,0.7824,0.7822,0.7782,0.7742,0.7736,0.7664,0.7648,0.7626,0.7589,0.7582,0.7553,0.7518,0.7518,0.7578,0.7587,0.7594,0.7603,0.7518,0,0,0,0,0,0.8096,0.8071,0.7994,0.7988,0.7967,0.7898,0.7878,0.7836,0.7786,0.7766,0.7714,0.7666,0.7628,0.7605,0.7567,0.7553,0.7534,0.7552,0.756,0.7566,0.7567,0.7554,0.756,0.7492,0.7492,0.7492,0,0,0.813,0.8079,0.8068,0.8003,0.7964,0.7937,0.7883,0.7857,0.7836,0.7762,0.7731,0.7691,0.7632,0.761,0.7598,0.7579,0.7582,0.7569,0.7575,0.7572,0.7557,0.7564,0.7569,0.7494,0.7493,0.7493,0,0,0.8179,0.8139,0.8128,0.8089,0.803,0.7984,0.7982,0.7911,0.7881,0.785,0.7793,0.7766,0.7704,0.7663,0.7635,0.7666,0.7624,0.7656,0.7694,0.7683,0.7688,0.7692,0.7702,0.7706,0.7657,0.7657,0.7657,0,0.8229,0.8188,0.8127,0.8104,0.8076,0.8009,0.7996,0.7961,0.7892,0.7873,0.7853,0.7773,0.7728,0.7695,0.7702,0.7682,0.7675,0.7664,0.7693,0.7696,0.7699,0.7707,0.7711,0.7661,0.766,0.766,0.766,0,0.8251,0.8223,0.8221,0.8157,0.8129,0.8111,0.8045,0.8024,0.7985,0.794,0.7907,0.7852,0.78,0.7789,0.775,0.7749,0.7739,0.7707,0.767,0.7711,0.7717,0.772,0.7667,0.7665,0.7664,0.7663,0,0,0.835,0.8252,0.8252,0.8221,0.815,0.8126,0.8104,0.8055,0.8037,0.7991,0.7969,0.7917,0.7886,0.7854,0.781,0.78,0.7825,0.7768,0.7765,0.7779,0.7817,0.7841,0.7846,0.7797,0.7797,0.7798,0.7822,0,0.8387,0.8345,0.8289,0.8265,0.8237,0.8172,0.8152,0.8105,0.8063,0.8031,0.7983,0.7947,0.791,0.789,0.7877,0.7825,0.7832,0.7823,0.7773,0.7772,0.7789,0.7849,0.7875,0.7901,0.7824,0.7824,0.7825,0,0.8424,0.8382,0.8357,0.8286,0.8272,0.8256,0.8204,0.8176,0.812,0.8089,0.8052,0.8004,0.7975,0.7943,0.79,0.7895,0.7871,0.7842,0.7842,0.7834,0.78,0.7842,0.7907,0.7911,0.7828,0.7828,0.7828,0,0.8497,0.8434,0.841,0.8385,0.8303,0.8293,0.8257,0.8201,0.8174,0.8128,0.8109,0.8061,0.8034,0.7996,0.7935,0.7918,0.7898,0.7862,0.7869,0.7871,0.7867,0.7868,0.7929,0.7855,0.7855,0.7854,0.7854,0,0.8542,0.8528,0.8441,0.8426,0.8408,0.8342,0.8325,0.8283,0.8233,0.8207,0.8147,0.8123,0.8045,0.8012,0.7963,0.7934,0.7922,0.7895,0.7882,0.7899,0.7903,0.7882,0.7878,0.7855,0.7855,0.7855,0.7855,0,0.862,0.8561,0.853,0.8455,0.8435,0.8425,0.8359,0.8341,0.8294,0.8262,0.825,0.8177,0.8134,0.807,0.8007,0.7974,0.7951,0.7931,0.7971,0.7963,0.7974,0.7973,0.8022,0.8024,0.7951,0.7952,0.7952,0,0.8653,0.8641,0.8564,0.8543,0.851,0.8477,0.8449,0.8383,0.8356,0.8291,0.828,0.8232,0.8191,0.8125,0.8064,0.8015,0.7993,0.8013,0.7985,0.8002,0.7991,0.7992,0.7989,0.802,0.8021,0.8022,0.8023,0,0.8716,0.8687,0.8651,0.8603,0.8572,0.8531,0.8487,0.8473,0.8397,0.8369,0.8325,0.8293,0.8229,0.8182,0.8125,0.8085,0.804,0.8032,0.8031,0.8048,0.8071,0.8057,0.7988,0.8031,0.803,0.803,0.8029,0.8029,0.8771,0.8756,0.87,0.866,0.862,0.858,0.8559,0.851,0.8473,0.8417,0.8379,0.8337,0.8278,0.8197,0.816,0.8123,0.8105,0.8104,0.8103,0.8103,0.8109,0.8078,0.8113,0.8113,0.8112,0.8112,0.8112,0,0.8829,0.879,0.8754,0.8695,0.8663,0.8625,0.8574,0.8549,0.8514,0.8464,0.8424,0.8372,0.8326,0.8262,0.8209,0.8193,0.8171,0.8181,0.8181,0.8172,0.813,0.8135,0.82,0.82,0.82,0.82,0.82,0.82,0.8856,0.8829,0.8793,0.8745,0.8704,0.8663,0.8637,0.8599,0.8559,0.8504,0.8466,0.8425,0.8368,0.8311,0.8265,0.8247,0.823,0.8247,0.8222,0.8184,0.8176,0.8168,0.8173,0.8244,0.8244,0.8268,0.8268,0.8268]}]]